When you browse on this site, cookies collect data to enhance your experience and personalize the content and advertising you see.
Visit our Privacy Policy to learn more. By continuing to use the site, you agree to this use of cookies and data.
  • In Hungary
  • List of Countries
  • For 7 days
  • Water Temperature
  • Satellite Maps
  • Weather Map
  • News
  • Weather Widgets
  • user-avatar
    Login

    Hourly Weather Shymkent

    Today, 16 January, Wednesday

    Time Temperature Precipitation Wind Pressure Humidity
    00:00 +5°C° 0 mm 3 mps 717 mmHg 84%
    01:00 +4°C° 0 mm 3 mps 717 mmHg 86%
    02:00 +4°C° 0 mm 2 mps 717 mmHg 87%
    03:00 +4°C° 0 mm 2 mps 718 mmHg 87%
    04:00 +4°C° 0 mm 2 mps 718 mmHg 87%
    05:00 +4°C° 0 mm 1 mps 718 mmHg 85%
    06:00 +4°C° 0 mm 1 mps 718 mmHg 83%
    07:00 +4°C° 0 mm 1 mps 719 mmHg 81%
    08:00 +4°C° 0 mm 1 mps 719 mmHg 79%
    09:00 +5°C° 0 mm 1 mps 719 mmHg 75%
    10:00 +6°C° 0 mm 1 mps 719 mmHg 71%
    11:00 +7°C° 0 mm 1 mps 719 mmHg 67%
    12:00 +8°C° 0 mm 1 mps 719 mmHg 66%
    13:00 +9°C° 0 mm 1 mps 719 mmHg 66%
    14:00 +9°C° 0 mm 1 mps 719 mmHg 65%
    15:00 +8°C° 0 mm 1 mps 719 mmHg 69%
    16:00 +8°C° 0 mm 1 mps 719 mmHg 72%
    17:00 +7°C° 0 mm 1 mps 719 mmHg 76%
    18:00 +6°C° 0 mm 1 mps 719 mmHg 75%
    19:00 +5°C° 0 mm 2 mps 719 mmHg 74%
    20:00 +4°C° 0 mm 2 mps 720 mmHg 74%
    21:00 +4°C° 0 mm 2 mps 720 mmHg 70%
    22:00 +4°C° 0 mm 2 mps 719 mmHg 66%
    23:00 +4°C° 0 mm 2 mps 719 mmHg 62%

    Tomorrow, 17 January, Thursday

    Time Temperature Precipitation Wind Pressure Humidity
    00:00 +3°C° 0 mm 2 mps 719 mmHg 59%
    01:00 +3°C° 0 mm 2 mps 719 mmHg 56%
    02:00 +3°C° 0 mm 2 mps 719 mmHg 53%
    03:00 +3°C° 0 mm 2 mps 719 mmHg 51%
    04:00 +3°C° 0 mm 2 mps 719 mmHg 50%
    05:00 +2°C° 0 mm 3 mps 719 mmHg 49%
    06:00 +2°C° 0 mm 3 mps 719 mmHg 49%
    07:00 +2°C° 0 mm 3 mps 719 mmHg 49%
    08:00 +2°C° 0 mm 3 mps 719 mmHg 49%
    09:00 +4°C° 0 mm 3 mps 718 mmHg 47%
    10:00 +7°C° 0 mm 2 mps 718 mmHg 44%
    11:00 +8°C° 0 mm 2 mps 718 mmHg 42%
    12:00 +10°C° 0 mm 2 mps 718 mmHg 41%
    13:00 +12°C° 0 mm 2 mps 717 mmHg 39%
    14:00 +13°C° 0 mm 2 mps 717 mmHg 37%
    15:00 +11°C° 0 mm 3 mps 717 mmHg 41%
    16:00 +9°C° 0 mm 3 mps 716 mmHg 44%
    17:00 +8°C° 0 mm 3 mps 716 mmHg 47%
    18:00 +7°C° 0 mm 3 mps 716 mmHg 45%
    19:00 +7°C° 0 mm 3 mps 715 mmHg 44%
    20:00 +5°C° 0 mm 4 mps 715 mmHg 42%
    21:00 +5°C° 0 mm 4 mps 715 mmHg 40%
    22:00 +4°C° 0 mm 4 mps 714 mmHg 38%
    23:00 +4°C° 0 mm 4 mps 714 mmHg 37%

    Day after tomorrow, 18 January, Friday

    Time Temperature Precipitation Wind Pressure Humidity
    00:00 +4°C° 0 mm 4 mps 714 mmHg 35%
    01:00 +4°C° 0 mm 4 mps 713 mmHg 34%
    02:00 +4°C° 0 mm 4 mps 713 mmHg 33%
    03:00 +4°C° 0 mm 4 mps 713 mmHg 32%
    04:00 +4°C° 0 mm 4 mps 712 mmHg 31%
    05:00 +4°C° 0 mm 4 mps 712 mmHg 30%
    06:00 +4°C° 0 mm 4 mps 711 mmHg 29%
    07:00 +4°C° 0 mm 4 mps 711 mmHg 29%
    08:00 +4°C° 0 mm 4 mps 711 mmHg 29%
    09:00 +6°C° 0 mm 4 mps 710 mmHg 29%
    10:00 +10°C° 0 mm 3 mps 710 mmHg 29%
    11:00 +12°C° 0 mm 3 mps 710 mmHg 28%
    12:00 +12°C° 0 mm 3 mps 710 mmHg 30%
    13:00 +14°C° 0 mm 2 mps 709 mmHg 32%
    14:00 +15°C° 0 mm 2 mps 709 mmHg 34%
    15:00 +13°C° 0 mm 2 mps 709 mmHg 37%
    16:00 +10°C° 0 mm 2 mps 709 mmHg 41%
    17:00 +9°C° 0 mm 1 mps 709 mmHg 44%
    18:00 +8°C° 0 mm 2 mps 710 mmHg 44%
    19:00 +9°C° 0 mm 2 mps 711 mmHg 44%
    20:00 +9°C° 0 mm 2 mps 712 mmHg 44%
    21:00 +8°C° 0.1 mm 3 mps 713 mmHg 51%
    22:00 +7°C° 0.1 mm 4 mps 714 mmHg 58%
    23:00 +7°C° 0.1 mm 5 mps 715 mmHg 66%

    19 January, Saturday

    Time Temperature Precipitation Wind Pressure Humidity
    00:00 +7°C° 0.4 mm 4 mps 715 mmHg 67%
    01:00 +7°C° 0.4 mm 4 mps 716 mmHg 68%
    02:00 +8°C° 0.4 mm 4 mps 716 mmHg 70%
    03:00 +8°C° 0 mm 3 mps 716 mmHg 72%
    04:00 +8°C° 0 mm 2 mps 717 mmHg 73%
    05:00 +9°C° 0 mm 1 mps 717 mmHg 75%
    06:00 +8°C° 0.1 mm 1 mps 717 mmHg 78%
    07:00 +7°C° 0.1 mm 0 mps 717 mmHg 80%
    08:00 +7°C° 0.1 mm 0 mps 718 mmHg 83%
    09:00 +8°C° 0 mm 1 mps 718 mmHg 81%
    10:00 +8°C° 0 mm 2 mps 718 mmHg 78%
    11:00 +9°C° 0 mm 3 mps 718 mmHg 76%
    12:00 +9°C° 0 mm 3 mps 718 mmHg 71%
    13:00 +9°C° 0 mm 3 mps 718 mmHg 66%
    14:00 +10°C° 0 mm 3 mps 717 mmHg 62%
    15:00 +9°C° 0 mm 3 mps 717 mmHg 63%
    16:00 +9°C° 0 mm 2 mps 717 mmHg 64%
    17:00 +8°C° 0 mm 2 mps 717 mmHg 66%
    18:00 +7°C° 0 mm 2 mps 717 mmHg 67%
    19:00 +7°C° 0 mm 1 mps 717 mmHg 68%
    20:00 +6°C° 0 mm 1 mps 717 mmHg 69%
    21:00 +6°C° 0 mm 1 mps 716 mmHg 69%
    22:00 +5°C° 0 mm 1 mps 716 mmHg 69%
    23:00 +4°C° 0 mm 2 mps 715 mmHg 69%

    20 January, Sunday

    Time Temperature Precipitation Wind Pressure Humidity
    00:00 +4°C° 0 mm 2 mps 715 mmHg 70%
    01:00 +3°C° 0 mm 2 mps 715 mmHg 70%
    02:00 +4°C° 0 mm 1 mps 715 mmHg 71%
    03:00 +4°C° 0 mm 1 mps 715 mmHg 74%
    04:00 +3°C° 0 mm 1 mps 715 mmHg 78%
    05:00 +3°C° 0 mm 1 mps 716 mmHg 81%
    06:00 +3°C° 0.1 mm 1 mps 716 mmHg 81%
    07:00 +2°C° 0.1 mm 2 mps 717 mmHg 82%
    08:00 +2°C° 0.1 mm 2 mps 717 mmHg 82%
    09:00 +2°C° 0.1 mm 2 mps 718 mmHg 82%
    10:00 +1°C° 0.1 mm 3 mps 718 mmHg 82%
    11:00 +1°C° 0.1 mm 3 mps 718 mmHg 82%
    12:00 +1°C° 0.1 mm 3 mps 718 mmHg 80%
    13:00 +2°C° 0.1 mm 3 mps 718 mmHg 77%
    14:00 +1°C° 0.1 mm 4 mps 718 mmHg 75%
    15:00 +2°C° 0.1 mm 3 mps 718 mmHg 75%
    16:00 +2°C° 0.1 mm 3 mps 719 mmHg 76%
    17:00 +2°C° 0.1 mm 3 mps 719 mmHg 76%
    18:00 +1°C° 0.1 mm 3 mps 720 mmHg 79%
    19:00 +1°C° 0.1 mm 3 mps 720 mmHg 81%
    20:00 +1°C° 0.1 mm 3 mps 721 mmHg 84%
    21:00 0°C° 0.1 mm 4 mps 721 mmHg 84%
    22:00 0°C° 0.1 mm 4 mps 721 mmHg 84%
    23:00 0°C° 0.1 mm 4 mps 722 mmHg 84%

    21 January, Monday

    Time Temperature Precipitation Wind Pressure Humidity
    00:00 -1°C° 0 mm 4 mps 722 mmHg 84%
    01:00 -1°C° 0 mm 4 mps 722 mmHg 84%
    02:00 0°C° 0 mm 3 mps 722 mmHg 84%
    03:00 -1°C° 0 mm 3 mps 722 mmHg 85%
    04:00 -1°C° 0 mm 2 mps 723 mmHg 86%
    05:00 0°C° 0 mm 1 mps 723 mmHg 88%
    06:00 0°C° 0 mm 1 mps 723 mmHg 87%
    07:00 0°C° 0 mm 1 mps 723 mmHg 87%
    08:00 -1°C° 0 mm 0 mps 724 mmHg 86%
    09:00 0°C° 0 mm 0 mps 724 mmHg 81%
    10:00 +2°C° 0 mm 1 mps 724 mmHg 76%
    11:00 +3°C° 0 mm 1 mps 724 mmHg 71%
    12:00 +3°C° 0 mm 1 mps 723 mmHg 69%
    13:00 +3°C° 0 mm 2 mps 723 mmHg 67%
    14:00 +3°C° 0 mm 2 mps 722 mmHg 65%
    15:00 +3°C° 0 mm 2 mps 722 mmHg 68%
    16:00 +2°C° 0 mm 2 mps 722 mmHg 71%
    17:00 +2°C° 0 mm 2 mps 722 mmHg 74%
    18:00 +1°C° 0 mm 2 mps 722 mmHg 75%
    19:00 +1°C° 0 mm 2 mps 722 mmHg 77%
    20:00 +1°C° 0 mm 1 mps 722 mmHg 78%
    21:00 +1°C° 0 mm 1 mps 721 mmHg 78%
    22:00 +1°C° 0 mm 1 mps 721 mmHg 79%
    23:00 0°C° 0 mm 0 mps 721 mmHg 79%
    Show more